TimeEDT,TemperatureF,Dew PointF,Humidity,Sea Level PressureIn,VisibilityMPH,Wind Direction,Wind SpeedMPH,Gust SpeedMPH,PrecipitationIn,Events,Conditions,WindDirDegrees,DateUTC
12:14 AM,57.0,55.0,93,30.17,2.5,Calm,Calm,-,N/A,,Clear,0,2013-10-02 04:14:00
12:23 AM,57.0,55.0,93,30.17,4.0,Calm,Calm,-,N/A,,Clear,0,2013-10-02 04:23:00
12:38 AM,55.9,54.0,93,30.16,1.8,Calm,Calm,-,N/A,,Clear,0,2013-10-02 04:38:00
12:50 AM,55.0,53.1,93,30.11,3.0,Calm,Calm,-,N/A,,Clear,0,2013-10-02 04:50:00
1:09 AM,55.9,54.0,93,30.17,3.0,Calm,Calm,-,N/A,,Clear,0,2013-10-02 05:09:00
1:53 AM,55.0,53.1,93,30.12,3.0,Calm,Calm,-,N/A,,Scattered Clouds,0,2013-10-02 05:53:00
2:00 AM,55.0,53.1,93,30.17,3.0,Calm,Calm,-,N/A,,Mostly Cloudy,0,2013-10-02 06:00:00
2:13 AM,55.0,53.1,93,30.18,3.0,Calm,Calm,-,N/A,,Scattered Clouds,0,2013-10-02 06:13:00
2:53 AM,54.0,52.0,93,30.12,3.0,Calm,Calm,-,N/A,,Scattered Clouds,0,2013-10-02 06:53:00
3:49 AM,53.6,51.8,94,30.16,2.0,Calm,Calm,-,N/A,,Mostly Cloudy,0,2013-10-02 07:49:00
3:53 AM,54.0,52.0,93,30.10,2.0,Calm,Calm,-,N/A,,Mostly Cloudy,0,2013-10-02 07:53:00
4:24 AM,52.0,51.1,97,30.16,1.0,Calm,Calm,-,N/A,,Overcast,0,2013-10-02 08:24:00
4:53 AM,53.1,51.1,93,30.11,1.0,Calm,Calm,-,N/A,,Overcast,0,2013-10-02 08:53:00
5:14 AM,52.0,50.0,93,30.17,0.2,Calm,Calm,-,N/A,Fog,Fog,0,2013-10-02 09:14:00
5:53 AM,52.0,51.1,97,30.12,0.1,Calm,Calm,-,N/A,Fog,Fog,0,2013-10-02 09:53:00
6:53 AM,53.1,52.0,96,30.14,0.1,Calm,Calm,-,N/A,Fog,Fog,0,2013-10-02 10:53:00
7:53 AM,54.0,52.0,93,30.16,0.1,Calm,Calm,-,N/A,Fog,Fog,0,2013-10-02 11:53:00
8:53 AM,55.0,54.0,96,30.18,0.2,Calm,Calm,-,N/A,Fog,Fog,0,2013-10-02 12:53:00
9:09 AM,55.9,55.0,97,30.23,1.5,Calm,Calm,-,N/A,,Overcast,0,2013-10-02 13:09:00
9:53 AM,60.1,55.9,86,30.19,1.5,Calm,Calm,-,N/A,,Scattered Clouds,0,2013-10-02 13:53:00
10:02 AM,60.1,57.0,90,30.23,8.0,Calm,Calm,-,N/A,,Scattered Clouds,0,2013-10-02 14:02:00
10:53 AM,66.9,57.9,73,30.18,10.0,Calm,Calm,-,N/A,,Scattered Clouds,0,2013-10-02 14:53:00
11:53 AM,72.0,59.0,64,30.16,10.0,Calm,Calm,-,N/A,,Partly Cloudy,0,2013-10-02 15:53:00
12:53 PM,73.9,59.0,59,30.14,10.0,South,3.5,-,N/A,,Partly Cloudy,170,2013-10-02 16:53:00
1:53 PM,77.0,57.0,50,30.11,10.0,Variable,5.8,-,N/A,,Scattered Clouds,0,2013-10-02 17:53:00
2:53 PM,78.1,55.0,45,30.09,10.0,Calm,Calm,-,N/A,,Scattered Clouds,0,2013-10-02 18:53:00
3:53 PM,79.0,55.0,44,30.07,10.0,West,3.5,-,N/A,,Scattered Clouds,270,2013-10-02 19:53:00
4:53 PM,79.0,55.9,45,30.06,10.0,East,4.6,-,N/A,,Mostly Cloudy,100,2013-10-02 20:53:00
5:53 PM,78.1,55.9,46,30.07,10.0,SSW,4.6,-,N/A,,Mostly Cloudy,200,2013-10-02 21:53:00
6:53 PM,73.9,57.0,55,30.07,10.0,Calm,Calm,-,N/A,,Mostly Cloudy,0,2013-10-02 22:53:00
7:53 PM,66.0,59.0,78,30.09,10.0,North,3.5,-,N/A,,Mostly Cloudy,350,2013-10-02 23:53:00
8:53 PM,62.1,57.9,86,30.09,10.0,Calm,Calm,-,N/A,,Scattered Clouds,0,2013-10-03 00:53:00
9:53 PM,61.0,57.0,87,30.10,9.0,Calm,Calm,-,N/A,,Scattered Clouds,0,2013-10-03 01:53:00
10:53 PM,57.9,55.9,93,30.11,8.0,NNE,3.5,-,N/A,,Scattered Clouds,30,2013-10-03 02:53:00
11:53 PM,60.1,57.0,90,30.11,6.0,Calm,Calm,-,N/A,,Scattered Clouds,0,2013-10-03 03:53:00